Location: Jelenia Góra
(50.8952°N, 15.7353°E)
Time: 00:12:29
(UTC+02:00)

ISS - Visible Passes

Search period start: 21 September 2018 00:00
Search period end: 01 October 2018 00:00
Orbit: 403 x 408 km, 51.6° (Epoch: 20 September)

Date Brightness Start Highest point End Pass type
(mag) Time Alt. Az. Time Alt. Az. Time Alt. Az.
22 Sep -1.8 20:27:34 10° S 20:28:50 16° S 20:28:50 16° S visible
23 Sep -1.7 19:36:58 10° SSE 19:38:20 12° SE 19:39:35 10° ESE visible
23 Sep -1.8 21:11:03 10° SW 21:12:18 21° SW 21:12:18 21° SW visible
24 Sep -3.1 20:19:28 10° SW 20:22:28 33° SSE 20:22:51 32° SE visible
24 Sep -0.6 21:55:29 10° W 21:55:33 10° W 21:55:33 10° W visible
25 Sep -2.4 19:28:05 10° SSW 19:30:43 22° SE 19:33:15 11° E visible
25 Sep -2.9 21:03:36 10° WSW 21:05:57 43° WSW 21:05:57 43° WSW visible
26 Sep -3.7 20:11:47 10° WSW 20:15:01 56° SSE 20:16:13 33° E visible
26 Sep -0.9 21:48:12 10° W 21:48:54 15° W 21:48:54 15° W visible
27 Sep -3.1 19:20:05 10° SW 19:23:11 39° SSE 19:26:18 10° E visible
27 Sep -3.4 20:56:15 10° W 20:59:04 61° W 20:59:04 61° W visible
28 Sep -3.9 20:04:18 10° WSW 20:07:37 83° SSE 20:09:10 29° E visible
28 Sep -1.0 21:40:53 10° W 21:41:51 18° W 21:41:51 18° W visible
29 Sep -3.7 19:12:25 10° WSW 19:15:41 64° SSE 19:18:58 10° ENE visible
29 Sep -3.5 20:48:54 10° W 20:51:53 67° NW 20:51:53 67° NW visible
30 Sep -3.8 19:56:54 10° W 20:00:13 79° N 20:01:53 27° ENE visible
30 Sep -1.1 21:33:29 10° WNW 21:34:33 19° W 21:34:33 19° W visible
